Time,TemperatureF,DewpointF,PressureIn,WindDirection,WindDirectionDegrees,WindSpeedMPH,WindSpeedGustMPH,Humidity,HourlyPrecipIn,Conditions,Clouds,dailyrainin,SolarRadiationWatts/m^2,SoftwareType,DateUTC
2013-03-22 00:05:00,47.5,42.0,29.93,SW,236,1.0,1.0,81,0.00,,,0.00,0,Wunderground v.1.15,2013-03-21 23:05:00,
2013-03-22 00:16:00,47.5,42.0,29.92,SW,236,0.0,1.0,81,0.00,,,0.00,0,Wunderground v.1.15,2013-03-21 23:16:00,
2013-03-22 00:25:00,47.5,42.0,29.92,SW,236,1.0,2.0,81,0.00,,,0.00,0,Wunderground v.1.15,2013-03-21 23:25:00,
2013-03-22 00:31:00,47.6,41.7,29.92,SW,236,1.0,1.0,80,0.00,,,0.00,0,Wunderground v.1.15,2013-03-21 23:31:00,
2013-03-22 00:45:00,47.7,41.8,29.92,SW,236,1.0,1.0,80,0.00,,,0.00,0,Wunderground v.1.15,2013-03-21 23:45:00,
2013-03-22 00:56:00,47.7,41.8,29.91,SW,236,0.0,1.0,80,0.00,,,0.00,0,Wunderground v.1.15,2013-03-21 23:56:00,
2013-03-22 01:05:00,47.6,41.7,29.90,SW,236,0.0,0.0,80,0.00,,,0.00,0,Wunderground v.1.15,2013-03-22 00:05:00,
2013-03-22 01:11:00,47.6,41.7,29.90,SW,236,0.0,1.0,80,0.00,,,0.00,0,Wunderground v.1.15,2013-03-22 00:11:00,
2013-03-22 01:20:00,47.4,41.5,29.90,SW,236,1.0,2.0,80,0.00,,,0.00,0,Wunderground v.1.15,2013-03-22 00:20:00,
2013-03-22 01:30:00,47.2,41.3,29.89,SW,236,1.0,1.0,80,0.00,,,0.00,0,Wunderground v.1.15,2013-03-22 00:30:00,
2013-03-22 01:41:00,47.0,41.1,29.90,SW,236,1.0,1.0,80,0.00,,,0.00,0,Wunderground v.1.15,2013-03-22 00:41:00,
2013-03-22 02:20:00,46.2,40.7,29.88,WSW,237,2.0,2.0,81,0.00,,,0.00,0,Wunderground v.1.15,2013-03-22 01:20:00,
2013-03-22 02:26:00,46.2,40.7,29.88,WSW,250,2.0,3.0,81,0.00,,,0.00,0,Wunderground v.1.15,2013-03-22 01:26:00,
2013-03-22 02:35:00,46.4,40.9,29.88,West,264,2.0,3.0,81,0.00,,,0.00,0,Wunderground v.1.15,2013-03-22 01:35:00,
2013-03-22 02:50:00,46.6,41.1,29.87,West,265,2.0,2.0,81,0.00,,,0.00,0,Wunderground v.1.15,2013-03-22 01:50:00,
2013-03-22 03:55:00,46.3,40.8,29.84,West,276,2.0,3.0,81,0.00,,,0.00,0,Wunderground v.1.15,2013-03-22 02:55:00,
2013-03-22 04:06:00,46.3,40.8,29.84,West,276,1.0,1.0,81,0.00,,,0.00,0,Wunderground v.1.15,2013-03-22 03:06:00,
2013-03-22 04:20:00,46.5,41.0,29.83,WNW,290,1.0,1.0,81,0.00,,,0.00,0,Wunderground v.1.15,2013-03-22 03:20:00,
2013-03-22 04:35:00,46.3,40.5,29.83,WNW,291,2.0,2.0,80,0.00,,,0.00,0,Wunderground v.1.15,2013-03-22 03:35:00,
2013-03-22 04:50:00,46.4,40.6,29.83,WNW,289,2.0,2.0,80,0.00,,,0.00,0,Wunderground v.1.15,2013-03-22 03:50:00,
2013-03-22 05:05:00,46.3,40.1,29.82,WNW,289,1.0,1.0,79,0.00,,,0.00,0,Wunderground v.1.15,2013-03-22 04:05:00,
2013-03-22 05:15:00,46.0,39.5,29.83,WNW,289,1.0,1.0,78,0.00,,,0.00,0,Wunderground v.1.15,2013-03-22 04:15:00,
2013-03-22 05:26:00,45.9,39.4,29.82,WNW,288,2.0,2.0,78,0.00,,,0.00,0,Wunderground v.1.15,2013-03-22 04:26:00,
2013-03-22 05:30:00,46.0,39.5,29.82,WNW,288,2.0,2.0,78,0.00,,,0.00,0,Wunderground v.1.15,2013-03-22 04:30:00,
2013-03-22 05:40:00,46.1,39.3,29.82,WNW,289,1.0,1.0,77,0.00,,,0.00,0,Wunderground v.1.15,2013-03-22 04:40:00,
2013-03-22 05:55:00,46.5,39.0,29.82,WNW,292,3.0,3.0,75,0.00,,,0.00,0,Wunderground v.1.15,2013-03-22 04:55:00,
2013-03-22 06:10:00,47.1,38.9,29.82,WNW,289,1.0,1.0,73,0.00,,,0.00,0,Wunderground v.1.15,2013-03-22 05:10:00,
2013-03-22 06:25:00,47.1,38.9,29.82,WNW,289,1.0,1.0,73,0.00,,,0.00,0,Wunderground v.1.15,2013-03-22 05:25:00,
2013-03-22 06:30:00,47.0,38.8,29.82,WNW,291,0.0,1.0,73,0.00,,,0.00,0,Wunderground v.1.15,2013-03-22 05:30:00,
2013-03-22 06:36:00,46.8,38.6,29.82,WNW,294,2.0,2.0,73,0.00,,,0.00,0,Wunderground v.1.15,2013-03-22 05:36:00,
2013-03-22 06:45:00,46.6,37.7,29.81,WNW,298,2.0,2.0,71,0.00,,,0.00,0,Wunderground v.1.15,2013-03-22 05:45:00,
2013-03-22 06:55:00,46.9,37.6,29.82,West,273,2.0,4.0,70,0.00,,,0.00,5,Wunderground v.1.15,2013-03-22 05:55:00,
2013-03-22 07:05:00,47.2,37.2,29.82,West,279,3.0,3.0,68,0.00,,,0.00,14,Wunderground v.1.15,2013-03-22 06:05:00,
2013-03-22 07:20:00,47.3,36.9,29.82,West,279,1.0,4.0,67,0.00,,,0.00,28,Wunderground v.1.15,2013-03-22 06:20:00,
2013-03-22 07:31:00,47.4,36.6,29.81,WNW,295,2.0,2.0,66,0.00,,,0.00,39,Wunderground v.1.15,2013-03-22 06:31:00,
2013-03-22 07:45:00,47.7,36.9,29.82,WNW,295,2.0,2.0,66,0.00,,,0.00,54,Wunderground v.1.15,2013-03-22 06:45:00,
2013-03-22 08:05:00,48.5,38.8,29.82,WNW,295,0.0,1.0,69,0.00,,,0.00,156,Wunderground v.1.15,2013-03-22 07:05:00,
2013-03-22 08:15:00,49.0,40.0,29.82,WNW,295,0.0,0.0,71,0.00,,,0.00,308,Wunderground v.1.15,2013-03-22 07:15:00,
2013-03-22 08:26:00,50.1,41.4,29.81,WNW,295,0.0,0.0,72,0.00,,,0.00,294,Wunderground v.1.15,2013-03-22 07:26:00,
2013-03-22 08:35:00,51.2,42.1,29.81,WNW,295,0.0,0.0,71,0.00,,,0.00,176,Wunderground v.1.15,2013-03-22 07:35:00,
2013-03-22 08:40:00,51.5,42.4,29.81,WNW,295,0.0,0.0,71,0.00,,,0.00,185,Wunderground v.1.15,2013-03-22 07:40:00,
2013-03-22 08:55:00,52.8,43.3,29.80,WNW,295,0.0,0.0,70,0.00,,,0.00,299,Wunderground v.1.15,2013-03-22 07:55:00,
2013-03-22 09:06:00,53.9,43.6,29.81,WNW,295,0.0,0.0,68,0.00,,,0.00,250,Wunderground v.1.15,2013-03-22 08:06:00,
2013-03-22 09:15:00,55.0,43.8,29.81,WNW,295,0.0,0.0,66,0.00,,,0.00,206,Wunderground v.1.15,2013-03-22 08:15:00,
2013-03-22 09:21:00,55.5,43.9,29.81,WNW,295,0.0,1.0,65,0.00,,,0.00,301,Wunderground v.1.15,2013-03-22 08:21:00,
2013-03-22 09:35:00,57.1,45.0,29.81,WNW,295,1.0,1.0,64,0.00,,,0.00,260,Wunderground v.1.15,2013-03-22 08:35:00,
2013-03-22 09:45:00,57.6,44.7,29.81,WNW,295,0.0,0.0,62,0.00,,,0.00,366,Wunderground v.1.15,2013-03-22 08:45:00,
2013-03-22 10:05:00,58.8,45.8,29.81,SSE,148,3.0,3.0,62,0.00,,,0.00,431,Wunderground v.1.15,2013-03-22 09:05:00,
2013-03-22 10:15:00,59.0,45.6,29.81,South,174,3.0,6.0,61,0.00,,,0.00,278,Wunderground v.1.15,2013-03-22 09:15:00,
2013-03-22 10:30:00,60.2,46.3,29.81,SSW,209,3.0,3.0,60,0.00,,,0.00,714,Wunderground v.1.15,2013-03-22 09:30:00,
2013-03-22 10:40:00,61.6,46.2,29.80,SW,222,4.0,5.0,57,0.00,,,0.00,710,Wunderground v.1.15,2013-03-22 09:40:00,
2013-03-22 10:51:00,62.8,46.9,29.80,South,173,4.0,4.0,56,0.00,,,0.00,786,Wunderground v.1.15,2013-03-22 09:51:00,
2013-03-22 11:10:00,64.1,47.6,29.80,SE,140,4.0,4.0,55,0.00,,,0.00,756,Wunderground v.1.15,2013-03-22 10:10:00,
2013-03-22 11:20:00,64.5,48.0,29.79,SW,217,4.0,8.0,55,0.00,,,0.00,786,Wunderground v.1.15,2013-03-22 10:20:00,
2013-03-22 11:31:00,64.8,47.8,29.79,ESE,123,4.0,4.0,54,0.00,,,0.00,809,Wunderground v.1.15,2013-03-22 10:31:00,
2013-03-22 11:41:00,65.1,47.0,29.79,SW,219,5.0,5.0,52,0.00,,,0.00,817,Wunderground v.1.15,2013-03-22 10:41:00,
2013-03-22 11:50:00,65.1,47.5,29.78,South,173,4.0,7.0,53,0.00,,,0.00,826,Wunderground v.1.15,2013-03-22 10:50:00,
2013-03-22 12:05:00,66.1,46.9,29.77,SSW,206,4.0,5.0,50,0.00,,,0.00,838,Wunderground v.1.15,2013-03-22 11:05:00,
2013-03-22 12:15:00,67.1,46.7,29.77,SSW,203,3.0,3.0,48,0.00,,,0.00,851,Wunderground v.1.15,2013-03-22 11:15:00,
2013-03-22 12:26:00,67.9,47.5,29.77,South,172,4.0,7.0,48,0.00,,,0.00,860,Wunderground v.1.15,2013-03-22 11:26:00,
2013-03-22 12:35:00,68.2,47.2,29.77,SSW,205,4.0,7.0,47,0.00,,,0.00,861,Wunderground v.1.15,2013-03-22 11:35:00,
2013-03-22 12:45:00,68.4,47.4,29.77,SSW,196,5.0,6.0,47,0.00,,,0.00,853,Wunderground v.1.15,2013-03-22 11:45:00,
2013-03-22 12:56:00,68.4,47.9,29.76,SSW,199,5.0,6.0,48,0.00,,,0.00,844,Wunderground v.1.15,2013-03-22 11:56:00,
2013-03-22 13:05:00,68.2,47.2,29.76,SSW,207,4.0,5.0,47,0.00,,,0.00,828,Wunderground v.1.15,2013-03-22 12:05:00,
2013-03-22 13:20:00,68.8,48.3,29.75,SSW,203,4.0,7.0,48,0.00,,,0.00,826,Wunderground v.1.15,2013-03-22 12:20:00,
2013-03-22 13:31:00,68.8,48.3,29.75,SSE,149,4.0,4.0,48,0.00,,,0.00,800,Wunderground v.1.15,2013-03-22 12:31:00,
2013-03-22 13:46:00,68.9,47.3,29.75,South,186,5.0,5.0,46,0.00,,,0.00,761,Wunderground v.1.15,2013-03-22 12:46:00,
2013-03-22 13:55:00,69.3,47.6,29.74,SW,219,4.0,4.0,46,0.00,,,0.00,733,Wunderground v.1.15,2013-03-22 12:55:00,
2013-03-22 14:06:00,69.4,48.3,29.74,SW,231,4.0,4.0,47,0.00,,,0.00,758,Wunderground v.1.15,2013-03-22 13:06:00,
2013-03-22 14:15:00,69.2,47.5,29.74,SSW,200,4.0,5.0,46,0.00,,,0.00,803,Wunderground v.1.15,2013-03-22 13:15:00,
2013-03-22 14:25:00,69.2,48.1,29.73,SSE,163,4.0,4.0,47,0.00,,,0.00,798,Wunderground v.1.15,2013-03-22 13:25:00,
2013-03-22 14:40:00,68.8,48.3,29.72,SW,219,4.0,5.0,48,0.00,,,0.00,900,Wunderground v.1.15,2013-03-22 13:40:00,
2013-03-22 14:51:00,68.9,47.3,29.72,South,176,4.0,4.0,46,0.00,,,0.00,795,Wunderground v.1.15,2013-03-22 13:51:00,
2013-03-22 15:05:00,69.0,47.4,29.70,SSW,193,4.0,5.0,46,0.00,,,0.00,763,Wunderground v.1.15,2013-03-22 14:05:00,
2013-03-22 15:21:00,69.0,47.4,29.70,South,191,3.0,6.0,46,0.00,,,0.00,744,Wunderground v.1.15,2013-03-22 14:21:00,
2013-03-22 15:30:00,68.8,47.7,29.70,SW,229,5.0,6.0,47,0.00,,,0.00,410,Wunderground v.1.15,2013-03-22 14:30:00,
2013-03-22 15:40:00,68.1,47.7,29.70,SSE,159,5.0,5.0,48,0.00,,,0.00,455,Wunderground v.1.15,2013-03-22 14:40:00,
2013-03-22 15:55:00,67.5,48.7,29.71,South,171,6.0,6.0,51,0.00,,,0.00,610,Wunderground v.1.15,2013-03-22 14:55:00,
2013-03-22 16:10:00,67.3,49.1,29.71,SSW,205,4.0,4.0,52,0.00,,,0.00,536,Wunderground v.1.15,2013-03-22 15:10:00,
2013-03-22 16:25:00,66.8,48.6,29.71,SSW,192,4.0,4.0,52,0.00,,,0.00,487,Wunderground v.1.15,2013-03-22 15:25:00,
2013-03-22 16:40:00,66.1,49.9,29.71,SSW,202,4.0,6.0,56,0.00,,,0.00,438,Wunderground v.1.15,2013-03-22 15:40:00,
2013-03-22 16:50:00,65.6,50.4,29.70,SSW,199,4.0,4.0,58,0.00,,,0.00,396,Wunderground v.1.15,2013-03-22 15:50:00,
2013-03-22 17:05:00,65.1,49.5,29.70,South,177,4.0,8.0,57,0.00,,,0.00,360,Wunderground v.1.15,2013-03-22 16:05:00,
2013-03-22 17:25:00,64.8,49.7,29.69,South,184,3.0,3.0,58,0.00,,,0.00,288,Wunderground v.1.15,2013-03-22 16:25:00,
2013-03-22 17:35:00,64.8,49.7,29.69,WSW,247,2.0,4.0,58,0.00,,,0.00,255,Wunderground v.1.15,2013-03-22 16:35:00,
2013-03-22 17:45:00,65.2,49.6,29.69,West,280,3.0,4.0,57,0.00,,,0.00,221,Wunderground v.1.15,2013-03-22 16:45:00,
2013-03-22 18:05:00,65.0,48.9,29.69,SW,220,3.0,3.0,56,0.00,,,0.00,155,Wunderground v.1.15,2013-03-22 17:05:00,
2013-03-22 18:20:00,64.3,50.1,29.69,SSE,153,3.0,4.0,60,0.00,,,0.00,33,Wunderground v.1.15,2013-03-22 17:20:00,
2013-03-22 18:35:00,62.3,50.0,29.70,South,183,4.0,4.0,64,0.00,,,0.00,23,Wunderground v.1.15,2013-03-22 17:35:00,
2013-03-22 18:51:00,60.6,48.8,29.70,WSW,237,3.0,3.0,65,0.00,,,0.00,12,Wunderground v.1.15,2013-03-22 17:51:00,
2013-03-22 19:05:00,59.3,47.9,29.71,WSW,242,3.0,5.0,66,0.00,,,0.00,0,Wunderground v.1.15,2013-03-22 18:05:00,
2013-03-22 19:20:00,58.4,47.9,29.71,WNW,288,3.0,3.0,68,0.00,,,0.00,0,Wunderground v.1.15,2013-03-22 18:20:00,
2013-03-22 19:35:00,57.9,47.8,29.71,WNW,282,2.0,4.0,69,0.00,,,0.00,0,Wunderground v.1.15,2013-03-22 18:35:00,
2013-03-22 19:50:00,57.6,47.5,29.71,West,278,0.0,0.0,69,0.00,,,0.00,0,Wunderground v.1.15,2013-03-22 18:50:00,
2013-03-22 20:06:00,57.1,47.0,29.71,SW,215,1.0,1.0,69,0.00,,,0.00,0,Wunderground v.1.15,2013-03-22 19:06:00,
2013-03-22 20:20:00,56.6,47.3,29.72,South,172,3.0,3.0,71,0.00,,,0.00,0,Wunderground v.1.15,2013-03-22 19:20:00,
2013-03-22 20:35:00,56.4,48.2,29.72,SSE,158,2.0,2.0,74,0.00,,,0.00,0,Wunderground v.1.15,2013-03-22 19:35:00,
2013-03-22 20:45:00,56.3,49.5,29.73,South,177,4.0,4.0,78,0.00,,,0.00,0,Wunderground v.1.15,2013-03-22 19:45:00,
2013-03-22 20:50:00,56.2,49.8,29.72,South,182,3.0,4.0,79,0.00,,,0.00,0,Wunderground v.1.15,2013-03-22 19:50:00,
2013-03-22 21:06:00,55.7,50.0,29.73,South,169,2.0,3.0,81,0.00,,,0.00,0,Wunderground v.1.15,2013-03-22 20:06:00,
2013-03-22 21:15:00,55.3,49.9,29.72,SSW,192,1.0,1.0,82,0.00,,,0.00,0,Wunderground v.1.15,2013-03-22 20:15:00,
2013-03-22 21:25:00,54.6,49.2,29.72,SSW,202,1.0,1.0,82,0.00,,,0.00,0,Wunderground v.1.15,2013-03-22 20:25:00,
2013-03-22 21:40:00,53.9,48.5,29.72,WSW,238,0.0,0.0,82,0.00,,,0.00,0,Wunderground v.1.15,2013-03-22 20:40:00,
2013-03-22 21:50:00,53.8,48.4,29.72,WSW,238,0.0,0.0,82,0.00,,,0.00,0,Wunderground v.1.15,2013-03-22 20:50:00,
2013-03-22 21:56:00,53.7,48.3,29.72,SW,220,1.0,1.0,82,0.00,,,0.00,0,Wunderground v.1.15,2013-03-22 20:56:00,
2013-03-22 22:05:00,53.5,48.1,29.72,SSW,208,0.0,0.0,82,0.00,,,0.00,0,Wunderground v.1.15,2013-03-22 21:05:00,
2013-03-22 22:16:00,53.0,47.7,29.72,SSW,208,0.0,0.0,82,0.00,,,0.00,0,Wunderground v.1.15,2013-03-22 21:16:00,
2013-03-22 22:25:00,52.6,46.9,29.71,South,190,1.0,2.0,81,0.00,,,0.00,0,Wunderground v.1.15,2013-03-22 21:25:00,
2013-03-22 22:30:00,52.5,46.8,29.72,SW,223,1.0,1.0,81,0.00,,,0.00,0,Wunderground v.1.15,2013-03-22 21:30:00,
2013-03-22 22:45:00,52.2,45.9,29.71,SSW,211,2.0,4.0,79,0.00,,,0.00,0,Wunderground v.1.15,2013-03-22 21:45:00,
2013-03-22 23:05:00,51.9,44.2,29.71,SW,221,0.0,0.0,75,0.00,,,0.00,0,Wunderground v.1.15,2013-03-22 22:05:00,
2013-03-22 23:20:00,52.3,45.3,29.70,South,169,2.0,2.0,77,0.00,,,0.00,0,Wunderground v.1.15,2013-03-22 22:20:00,
2013-03-22 23:35:00,53.3,47.6,29.72,South,180,4.0,4.0,81,0.00,,,0.00,0,Wunderground v.1.15,2013-03-22 22:35:00,
2013-03-22 23:51:00,53.6,48.2,29.71,SSW,209,1.0,1.0,82,0.00,,,0.00,0,Wunderground v.1.15,2013-03-22 22:51:00,